Search for airport 
image banner adimage banner ad
image banner ad

WBKK - Kota Kinabalu International

Located in Kota Kinabalu, Malaysia

ICAO - WBKK, IATA - BKI

Data provided by Airmate  

General information

Coordinates: N5°55'55" E116°3'1"
Elevation is 14 feet MSL.
 
Rated:
View ratings: [VIEW]


View others Airports in Sabah

Operational data

Open for public use
Current time UTC:
Current local time:
Weather
METAR: WBKK 281500Z 12003KT 100V160 9999 FEW015 27/23 Q1010 NOSIG
TAF: TAF WBKK 281100Z 2812/2912 12005KT 9999 FEW014 BECMG 2902/2904 32005KT
View NOTAMs / SUP AIP / TFR affecting this airport [VIEW]
Communications frequencies: [VIEW]

Runways:

RWY identifierQFULength (ft)Width (ft)SurfaceLDA (ft)
0223°12402148ASP
20203°12402148

Airport contact information

Address: Kota Kinabalu Malaysia

Satellite view of WBKK